Wind_Speed
23 23 22 24 25 25 23 22 21 19 18 17 15 14 13 12 10 8 7 6 6 7 6 4 5 6 7 7 7 7 8 8 8 8 8 8 8 8 8 8 9 9 9 9 8 8 8 8 8
22 22 22 24 25 25 24 23 21 19 19 18 16 14 13 12 11 9 8 7 8 8 7 6 6 7 8 8 7 7 8 8 8 7 7 7 7 7 7 8 9 9 9 8 8 8 8 8 8
21 22 23 24 25 25 25 23 21 21 20 18 17 15 14 13 11 11 10 9 9 8 8 7 7 7 8 8 8 8 8 7 7 7 7 7 7 8 8 8 8 8 8 8 7 8 8 8 7
20 21 22 24 24 24 25 24 22 22 20 19 18 17 15 14 13 12 11 11 10 9 8 7 8 7 8 8 8 7 7 6 6 6 6 7 7 7 8 8 8 8 8 7 7 7 7 7 7
18 20 22 23 24 23 24 24 23 21 20 20 19 18 16 15 14 13 13 12 12 11 10 9 9 8 8 7 7 7 6 5 5 5 6 6 7 7 7 7 8 9 8 8 7 7 7 7 8
16 19 20 22 22 22 23 24 22 21 20 20 20 19 17 17 16 15 14 14 13 12 11 11 10 9 8 7 7 7 6 5 5 5 5 6 6 7 7 7 8 8 8 7 7 7 7 7 7
15 16 19 20 21 21 22 22 22 21 21 20 20 19 18 17 17 16 15 15 13 12 12 11 11 10 8 8 7 6 5 5 5 6 6 6 7 7 7 8 8 7 7 7 7 7 7 7 7
13 15 17 18 19 20 21 22 22 22 22 21 20 19 19 18 18 17 16 16 14 13 13 12 11 10 9 8 7 6 5 5 5 6 6 6 7 8 8 8 8 7 7 7 7 7 7 7 7
12 13 14 16 17 19 20 21 23 23 22 21 20 19 19 19 19 18 17 16 16 14 13 12 12 11 9 8 7 6 5 5 5 4 5 6 7 7 8 8 7 7 7 7 7 7 7 6 7
11 11 13 15 16 19 20 21 22 23 22 21 20 19 19 19 19 19 18 17 17 16 14 13 12 12 10 8 7 6 6 6 5 5 5 6 6 7 7 7 7 7 7 6 6 6 6 6 6
7 9 11 13 16 18 19 21 21 21 21 21 21 20 19 19 19 19 19 18 17 16 15 13 12 11 11 9 7 6 6 6 5 5 5 6 6 7 7 7 7 7 6 6 6 5 6 6 6
5 8 10 11 13 15 16 19 20 20 21 21 21 20 19 19 19 19 19 19 18 17 16 14 13 12 11 10 8 7 6 5 4 5 5 5 6 7 7 6 6 6 5 5 5 5 5 6 6
4 4 6 7 9 12 14 16 17 18 20 20 21 20 19 19 19 18 18 19 18 18 17 15 14 13 11 10 9 8 7 6 5 5 5 5 5 6 6 6 5 5 4 4 4 5 6 6 6
2 2 4 5 6 8 11 13 14 16 18 19 19 19 18 18 18 18 18 19 19 18 17 16 15 14 13 11 10 8 7 6 5 5 4 4 4 4 5 5 4 4 4 4 4 4 5 5 5
5 1 2 5 5 7 8 10 12 14 15 17 17 17 17 17 17 18 18 18 18 18 17 15 15 14 14 13 11 10 8 7 6 6 4 4 3 4 4 4 4 4 4 4 4 4 5 5 5
7 4 3 6 6 8 7 8 11 11 13 15 16 15 16 16 16 17 17 17 17 17 16 15 14 14 14 14 12 11 9 8 7 6 5 3 2 2 3 3 4 4 4 4 4 5 5 5 5
9 7 4 6 7 8 8 7 10 11 11 12 14 14 14 14 14 15 16 16 17 16 16 15 14 13 13 13 12 12 10 9 8 6 4 3 2 2 2 3 3 4 5 5 5 5 5 5 6
11 9 6 6 8 9 9 7 9 9 9 9 11 13 13 13 13 13 14 15 16 15 15 14 13 13 13 13 12 12 10 10 9 7 5 4 3 1 2 2 3 3 4 4 5 6 6 6 6
12 11 8 7 9 10 8 8 8 8 7 8 8 10 11 11 11 11 11 13 14 14 14 13 13 12 12 12 12 11 10 10 9 8 6 5 3 2 1 1 2 2 3 4 5 6 6 7 7
13 11 11 10 10 10 10 10 9 9 8 9 9 9 10 9 9 10 10 10 11 12 12 12 11 11 11 11 11 11 10 10 9 8 7 6 5 4 3 1 1 2 3 4 5 6 6 7 8
15 14 14 13 12 13 13 12 11 12 10 10 11 9 9 8 7 8 8 9 9 9 10 10 10 10 10 10 10 10 9 9 8 8 7 7 6 4 3 2 1 1 2 4 5 6 7 8 8
17 16 15 16 16 15 15 16 13 12 13 12 11 9 9 9 8 7 7 7 8 8 8 9 9 9 9 9 9 8 8 8 8 8 7 7 6 6 4 3 2 2 3 4 4 5 6 7 8
18 17 18 19 19 19 18 19 17 16 16 14 11 9 9 9 9 8 7 6 6 6 6 7 8 8 8 8 7 7 7 7 7 7 7 6 6 6 6 5 3 2 3 4 4 5 5 6 7
19 19 19 20 21 22 21 22 19 17 17 15 13 10 10 10 9 9 8 5 5 6 5 5 6 6 6 7 7 7 6 6 7 6 6 6 6 6 6 6 5 4 4 4 5 5 6 7 8
22 22 22 23 23 23 21 24 22 18 17 16 14 11 12 12 11 10 8 6 5 5 6 5 5 5 6 6 6 6 6 5 6 5 5 5 6 6 6 6 6 6 5 5 6 6 6 7 8
22 23 25 25 25 24 22 24 22 18 17 16 14 14 13 13 12 11 10 8 7 7 6 5 5 5 5 6 6 6 6 5 5 5 5 6 6 6 6 7 7 7 7 7 7 7 7 7 8
23 23 24 26 26 27 25 23 21 18 17 17 16 15 15 14 14 13 11 10 9 8 8 7 7 6 6 6 6 6 6 6 6 6 6 7 7 7 7 8 8 8 9 8 8 8 8 8 8
24 23 24 26 27 28 26 22 20 18 18 18 18 18 16 15 14 14 13 11 10 9 9 10 10 9 8 8 8 8 8 7 7 6 7 7 7 7 8 8 9 9 9 9 9 9 8 8 9
25 26 26 26 27 28 27 24 21 21 20 19 18 19 17 17 17 17 15 14 12 11 11 12 12 11 10 10 10 10 10 9 9 8 9 9 9 9 9 9 10 10 10 10 9 9 9 10 10
28 27 28 28 28 28 29 28 24 23 22 21 21 20 20 20 19 16 16 17 16 14 14 14 13 13 13 12 12 13 13 12 12 11 11 10 10 10 11 11 12 12 13 12 12 11 11 12 13
Wind_Direction
59 56 48 42 41 39 37 40 43 42 40 40 37 32 32 32 32 31 30 31 41 51 59 77 96 113 115 111 115 128 132 135 139 141 145 149 151 152 150 152 153 153 154 156 155 159 156 153 153
57 52 46 41 39 37 36 39 40 41 41 41 39 37 35 34 35 36 35 41 47 52 58 74 101 111 110 110 114 122 129 133 137 142 147 149 154 155 155 157 158 157 159 160 161 163 161 155 151
54 50 45 41 39 35 37 39 37 39 41 40 40 40 40 41 44 43 43 46 50 55 61 73 97 107 113 113 115 121 128 131 134 143 149 153 155 153 151 156 159 161 164 162 164 166 164 160 156
52 47 46 41 39 37 39 40 37 39 39 40 41 42 43 45 48 49 49 51 55 61 67 77 91 98 108 110 119 121 129 132 137 144 151 156 159 156 153 159 165 167 169 162 160 163 160 152 151
53 45 42 39 38 38 40 41 39 37 37 39 42 43 45 49 52 53 53 55 58 61 67 76 91 95 101 106 112 122 131 134 136 143 150 157 161 159 159 159 168 170 167 163 158 158 158 154 154
51 44 38 36 37 38 39 40 40 37 36 39 41 43 44 48 52 54 55 58 59 61 65 72 82 88 93 100 105 113 125 134 141 148 154 160 169 172 167 167 168 167 165 162 162 161 159 156 156
53 46 37 35 36 39 40 41 42 41 38 39 41 43 43 47 50 52 55 56 58 61 68 73 77 82 88 96 105 110 116 121 131 138 150 155 162 170 175 171 169 166 162 159 161 160 159 155 153
48 46 38 35 37 41 41 39 39 41 39 39 41 43 44 47 49 51 56 57 60 63 68 74 75 79 88 93 101 108 110 118 128 133 145 150 155 162 166 167 171 166 166 167 164 157 156 154 152
45 46 39 38 38 42 42 39 38 40 37 37 41 43 46 49 51 52 55 58 59 63 69 74 75 76 83 91 98 108 113 120 128 137 142 141 142 150 157 160 162 164 168 167 162 156 158 160 158
47 40 36 39 41 42 42 40 40 40 37 37 40 43 45 48 51 54 57 58 58 60 64 69 73 77 81 88 94 101 111 119 127 128 134 139 142 149 153 159 159 158 159 161 163 162 161 165 164
44 37 38 41 41 40 37 40 41 40 38 38 40 43 45 47 50 54 57 59 59 60 61 65 70 72 75 81 85 91 104 115 130 138 135 136 141 149 153 157 151 150 154 156 162 168 168 168 171
60 46 38 38 38 37 34 37 41 39 39 38 39 41 44 46 47 51 54 57 57 57 60 62 64 66 71 73 77 84 94 104 131 135 133 138 143 147 150 150 151 153 158 161 169 175 172 169 171
78 57 37 33 33 34 30 31 36 37 37 37 38 39 43 46 48 49 50 53 55 55 57 58 61 64 67 71 76 82 84 94 117 129 130 132 142 149 152 157 158 160 164 160 165 177 173 176 174
145 80 13 16 17 21 24 24 28 32 33 34 34 35 40 44 48 49 48 49 51 52 54 54 55 58 60 66 75 79 83 87 99 123 129 132 140 148 156 162 163 169 176 173 169 178 185 186 181
211 205 332 332 345 345 8 17 17 22 29 27 28 30 35 39 43 45 48 49 48 49 51 53 53 55 58 60 63 70 80 84 90 108 115 124 140 150 159 172 174 176 182 186 185 185 188 192 191
226 238 300 312 318 324 338 359 358 9 22 22 22 24 30 36 40 42 44 47 47 46 47 52 56 56 56 57 59 61 66 70 80 90 95 103 124 146 163 176 182 188 191 191 193 194 196 203 204
218 231 258 295 298 306 313 333 341 345 5 14 16 18 25 32 37 40 42 44 45 45 45 49 54 55 54 54 56 57 61 64 64 70 82 91 91 128 161 171 182 197 204 202 204 205 205 211 214
217 231 245 280 302 295 300 306 324 325 345 0 7 10 17 23 31 36 38 41 43 44 45 49 52 52 53 53 55 56 59 61 63 67 77 80 68 93 163 191 200 209 215 215 220 221 223 224 224
219 238 255 273 299 295 301 293 296 307 322 338 350 2 8 15 23 28 32 38 41 42 43 46 50 50 51 52 53 53 53 54 56 58 63 61 56 71 127 197 221 237 234 234 238 237 238 233 235
220 234 247 260 275 287 301 296 284 294 314 333 329 338 353 4 13 20 25 32 39 41 42 44 46 46 48 50 49 48 47 48 46 45 46 46 44 49 51 29 288 251 246 246 247 245 240 238 238
223 234 241 252 263 274 280 284 283 294 295 310 318 321 338 346 350 356 15 22 32 38 39 40 41 41 42 45 45 45 45 44 42 41 41 43 42 38 28 20 1 305 265 256 254 246 243 241 242
225 231 240 248 256 263 272 281 285 288 293 298 306 311 324 330 332 337 358 8 15 26 30 32 33 37 37 37 39 38 38 38 37 35 34 33 30 27 20 359 329 299 285 269 263 258 251 247 245
228 230 239 246 250 253 260 271 279 283 285 288 292 303 307 316 317 316 324 347 359 8 19 23 25 28 29 29 31 31 31 31 30 27 25 24 19 15 18 11 353 324 308 290 276 267 261 255 250
226 230 238 244 245 248 252 263 269 277 285 284 284 287 289 298 298 300 296 308 337 346 354 6 12 14 17 22 26 26 24 22 19 15 14 15 10 4 4 0 351 332 315 304 294 284 272 263 259
227 234 239 242 244 247 251 257 265 270 279 279 281 277 277 284 287 292 293 293 305 314 330 340 355 2 5 7 12 14 9 4 5 2 359 0 357 352 347 348 337 324 318 311 299 291 279 270 265
229 237 240 247 249 251 254 258 265 268 273 274 271 271 273 275 275 282 287 283 281 294 298 306 324 334 340 344 347 353 352 347 346 348 343 338 336 334 334 335 335 329 319 310 301 294 287 279 276
232 236 243 249 252 256 256 258 262 266 270 268 268 269 271 271 269 275 283 279 276 282 287 288 294 301 306 314 321 328 332 327 323 328 334 329 324 317 321 326 326 325 325 318 312 299 287 280 281
234 236 242 248 252 256 259 257 258 260 268 270 270 273 275 271 270 277 280 277 266 271 281 278 280 288 292 295 301 307 312 311 310 308 315 322 321 314 313 318 320 319 321 317 313 304 292 288 284
228 233 238 245 249 253 257 257 256 260 266 271 274 273 276 275 271 273 270 271 271 270 272 278 275 282 286 287 291 298 298 296 298 302 302 302 306 306 303 307 310 312 314 313 309 305 297 295 292
230 234 237 243 247 251 256 259 256 258 262 267 272 274 275 272 275 269 272 276 267 265 267 269 271 275 280 282 285 290 291 291 289 292 294 296 296 296 296 297 299 301 303 302 299 297 298 296 294
Height
5904 5903 5902 5900 5898 5896 5894 5893 5891 5889 5888 5885 5883 5882 5880 5879 5878 5878 5875 5873 5872 5871 5870 5869 5869 5869 5869 5869 5870 5871 5871 5873 5873 5874 5875 5876 5877 5877 5878 5879 5880 5881 5882 5883 5884 5885 5886 5887 5888
5907 5906 5905 5903 5899 5897 5896 5894 5893 5891 5889 5887 5885 5884 5881 5879 5877 5876 5874 5873 5872 5871 5871 5870 5869 5869 5870 5870 5871 5872 5872 5873 5874 5875 5876 5877 5877 5878 5879 5880 5881 5882 5882 5883 5885 5886 5886 5887 5888
5910 5908 5907 5904 5902 5900 5899 5897 5895 5893 5891 5889 5887 5885 5883 5881 5879 5877 5875 5874 5873 5872 5872 5871 5871 5871 5870 5871 5872 5873 5873 5874 5875 5876 5876 5877 5878 5879 5879 5880 5881 5882 5883 5884 5885 5886 5887 5888 5888
5912 5910 5909 5907 5904 5903 5901 5900 5897 5895 5893 5891 5889 5887 5885 5882 5880 5878 5876 5875 5874 5873 5873 5872 5872 5872 5872 5873 5873 5874 5875 5875 5876 5876 5877 5878 5878 5879 5880 5881 5882 5883 5884 5884 5885 5886 5887 5888 5889
5915 5912 5910 5908 5906 5905 5904 5902 5900 5898 5896 5893 5891 5889 5886 5884 5881 5879 5878 5876 5875 5874 5874 5873 5873 5873 5873 5874 5875 5875 5876 5876 5877 5877 5878 5878 5879 5880 5881 5881 5882 5883 5884 5885 5886 5886 5887 5888 5889
5917 5915 5913 5911 5910 5909 5907 5905 5903 5901 5898 5895 5893 5891 5888 5886 5883 5881 5880 5878 5877 5876 5875 5875 5874 5874 5874 5875 5875 5876 5876 5877 5877 5877 5878 5879 5880 5881 5881 5882 5883 5884 5885 5885 5886 5887 5888 5889 5889
5919 5917 5915 5914 5913 5912 5910 5908 5907 5904 5901 5898 5895 5893 5890 5888 5885 5883 5881 5880 5879 5878 5877 5876 5876 5876 5876 5876 5876 5877 5877 5877 5878 5878 5878 5879 5880 5881 5881 5882 5883 5885 5885 5886 5887 5888 5889 5889 5890
5921 5920 5918 5917 5916 5915 5913 5911 5908 5905 5903 5901 5898 5896 5893 5891 5887 5885 5883 5882 5880 5879 5878 5878 5877 5877 5877 5877 5878 5878 5878 5878 5879 5879 5879 5879 5880 5881 5882 5883 5884 5885 5886 5887 5887 5888 5889 5890 5890
5924 5923 5921 5920 5919 5917 5915 5913 5911 5907 5905 5903 5900 5898 5896 5893 5890 5888 5886 5884 5883 5881 5880 5879 5879 5878 5878 5878 5878 5878 5879 5879 5880 5880 5880 5880 5880 5881 5882 5884 5885 5885 5886 5887 5888 5888 5889 5890 5890
5925 5924 5923 5922 5921 5919 5917 5916 5913 5910 5908 5905 5903 5900 5898 5896 5893 5891 5888 5887 5885 5883 5882 5881 5880 5880 5879 5879 5879 5879 5879 5880 5880 5880 5881 5881 5882 5882 5883 5884 5885 5886 5887 5887 5888 5888 5889 5890 5890
5926 5925 5924 5922 5921 5920 5919 5918 5916 5913 5911 5909 5906 5903 5901 5898 5896 5894 5891 5889 5887 5886 5885 5883 5882 5881 5881 5881 5880 5880 5880 5880 5881 5881 5882 5882 5882 5883 5884 5885 5886 5886 5887 5887 5888 5889 5889 5890 5890
5926 5926 5925 5924 5922 5921 5920 5919 5918 5916 5914 5911 5908 5906 5903 5901 5898 5896 5894 5892 5890 5889 5887 5886 5884 5883 5882 5882 5881 5881 5881 5881 5882 5882 5883 5883 5883 5884 5885 5886 5886 5887 5887 5887 5888 5889 5889 5890 5890
5926 5926 5925 5925 5924 5923 5922 5921 5920 5918 5916 5913 5911 5909 5906 5904 5901 5899 5897 5895 5893 5891 5889 5888 5887 5885 5884 5883 5883 5882 5882 5882 5882 5883 5883 5884 5884 5885 5886 5886 5887 5887 5887 5888 5889 5889 5890 5890 5890
5926 5926 5926 5925 5925 5923 5923 5923 5922 5921 5918 5916 5914 5911 5909 5906 5904 5902 5899 5897 5895 5893 5891 5890 5888 5887 5886 5885 5884 5884 5883 5883 5883 5883 5884 5884 5885 5885 5886 5886 5886 5887 5887 5888 5889 5889 5890 5890 5890
5926 5926 5926 5926 5925 5924 5925 5924 5923 5921 5919 5918 5916 5913 5911 5909 5906 5904 5901 5899 5897 5895 5894 5892 5890 5889 5888 5886 5886 5885 5884 5884 5884 5884 5885 5885 5886 5886 5886 5887 5887 5887 5888 5888 5888 5889 5889 5889 5890
5926 5927 5927 5926 5925 5925 5926 5925 5924 5922 5920 5919 5917 5915 5913 5910 5908 5906 5903 5901 5899 5897 5895 5894 5892 5891 5889 5888 5887 5886 5886 5886 5886 5885 5886 5886 5886 5886 5886 5887 5887 5887 5888 5888 5888 5889 5889 5889 5889
5926 5926 5926 5926 5925 5924 5924 5924 5924 5923 5921 5919 5918 5917 5914 5912 5910 5908 5905 5903 5901 5899 5897 5896 5894 5893 5891 5890 5889 5888 5887 5887 5886 5886 5886 5886 5886 5886 5886 5886 5887 5887 5887 5887 5887 5888 5888 5888 5889
5925 5925 5924 5924 5924 5923 5922 5923 5923 5922 5921 5920 5919 5918 5915 5913 5911 5909 5907 5905 5903 5901 5900 5898 5896 5895 5893 5892 5890 5889 5888 5888 5887 5887 5886 5886 5886 5886 5885 5886 5886 5886 5886 5886 5887 5886 5887 5887 5888
5921 5922 5922 5922 5922 5922 5921 5921 5921 5920 5920 5919 5919 5918 5916 5914 5912 5910 5908 5906 5905 5903 5901 5900 5898 5897 5895 5894 5892 5891 5890 5889 5888 5887 5887 5886 5886 5885 5885 5885 5885 5885 5885 5885 5885 5885 5885 5886 5886
5918 5919 5920 5920 5920 5919 5920 5919 5918 5918 5919 5918 5917 5917 5916 5915 5913 5911 5909 5908 5906 5904 5903 5901 5900 5898 5897 5895 5894 5892 5891 5890 5889 5888 5887 5887 5886 5885 5885 5885 5884 5884 5884 5884 5884 5884 5884 5884 5884
5915 5916 5917 5918 5918 5917 5918 5918 5917 5917 5917 5917 5916 5915 5915 5914 5913 5911 5910 5909 5907 5906 5904 5903 5901 5900 5898 5897 5895 5894 5893 5891 5890 5889 5888 5887 5886 5885 5885 5884 5884 5883 5883 5883 5883 5882 5882 5882 5883
5911 5914 5914 5915 5915 5915 5915 5914 5915 5914 5915 5915 5914 5913 5913 5913 5912 5911 5910 5909 5907 5906 5905 5904 5902 5901 5899 5898 5896 5895 5893 5892 5891 5890 5889 5887 5886 5885 5884 5884 5883 5883 5882 5882 5881 5881 5881 5880 5880
5907 5909 5910 5910 5910 5911 5912 5912 5913 5912 5912 5912 5912 5911 5911 5910 5910 5910 5909 5908 5907 5906 5905 5904 5902 5901 5899 5898 5897 5895 5894 5893 5891 5890 5889 5888 5887 5885 5884 5883 5882 5882 5881 5880 5880 5880 5879 5879 5879
5903 5904 5905 5905 5906 5907 5909 5909 5909 5909 5909 5909 5909 5909 5909 5908 5908 5908 5907 5906 5905 5905 5904 5903 5902 5900 5899 5898 5896 5895 5894 5893 5891 5890 5889 5888 5886 5885 5884 5883 5882 5881 5880 5879 5878 5878 5877 5877 5877
5899 5900 5901 5901 5902 5903 5905 5904 5905 5906 5906 5905 5905 5905 5905 5906 5906 5906 5905 5904 5903 5903 5903 5902 5901 5899 5898 5897 5896 5894 5893 5892 5891 5889 5888 5887 5886 5884 5883 5882 5881 5880 5879 5878 5877 5876 5875 5875 5875
5894 5895 5897 5898 5898 5898 5899 5898 5900 5901 5902 5901 5901 5902 5902 5903 5903 5903 5902 5901 5901 5901 5901 5900 5899 5898 5897 5896 5895 5893 5892 5891 5890 5888 5887 5886 5884 5883 5882 5881 5879 5878 5877 5876 5875 5874 5873 5872 5872
5889 5891 5892 5893 5892 5893 5893 5894 5895 5896 5896 5896 5897 5897 5897 5898 5899 5899 5898 5899 5898 5898 5898 5898 5897 5896 5895 5894 5893 5891 5890 5889 5888 5886 5885 5884 5882 5881 5880 5879 5877 5876 5875 5874 5873 5871 5870 5870 5869
5884 5886 5887 5887 5887 5886 5887 5889 5890 5890 5890 5891 5892 5892 5891 5893 5895 5895 5895 5895 5895 5895 5894 5895 5894 5894 5893 5891 5890 5889 5888 5887 5886 5885 5883 5882 5880 5879 5878 5876 5875 5874 5873 5871 5870 5868 5867 5867 5866
5878 5880 5880 5881 5881 5881 5882 5885 5885 5885 5886 5886 5887 5888 5888 5889 5889 5890 5891 5891 5891 5891 5891 5891 5890 5890 5889 5888 5887 5886 5885 5884 5883 5882 5881 5879 5878 5877 5875 5874 5873 5871 5870 5868 5867 5866 5864 5864 5863
5872 5873 5874 5875 5876 5876 5876 5880 5879 5880 5881 5881 5882 5883 5883 5884 5883 5884 5886 5886 5886 5886 5887 5886 5886 5885 5885 5884 5883 5883 5882 5881 5880 5879 5877 5876 5875 5874 5872 5871 5869 5868 5866 5865 5864 5862 5861 5860 5859